| time (UTC) | temp C | wind direction | speed KPH | gust KPH | rain 1hr cm | rain 24hr cm | rain mn cm | humidity % | barometer mb |
| 20260505032530 | 29 | 110 | 4.8 | 17.7 | 0.00 | 0.00 | 0.00 | 75 | 1007.1 |
| 20260505031958 | 29 | 116 | 8.0 | 17.7 | 0.00 | 0.00 | 0.00 | 75 | 1007.1 |
| 20260505031457 | 29 | 115 | 8.0 | 17.7 | 0.00 | 0.00 | 0.00 | 75 | 1007.1 |
| 20260505030956 | 29 | 117 | 6.4 | 16.1 | 0.00 | 0.00 | 0.00 | 75 | 1007.1 |
| 20260505030454 | 29 | 98 | 3.2 | 14.5 | 0.00 | 0.00 | 0.00 | 75 | 1007.1 |
| 20260505025953 | 29 | 116 | 8.0 | 17.7 | 0.00 | 0.00 | 0.00 | 74 | 1007.1 |
| 20260505025452 | 29 | 127 | 4.8 | 17.7 | 0.00 | 0.00 | 0.00 | 75 | 1007.1 |
| 20260505024951 | 29 | 108 | 3.2 | 19.3 | 0.00 | 0.00 | 0.00 | 75 | 1007.1 |
| 20260505024449 | 29 | 135 | 8.0 | 19.3 | 0.00 | 0.00 | 0.00 | 75 | 1007.1 |
| 20260505023948 | 29 | 122 | 9.7 | 19.3 | 0.00 | 0.00 | 0.00 | 75 | 1007.1 |
| 20260505023447 | 29 | 123 | 9.7 | 19.3 | 0.00 | 0.00 | 0.00 | 75 | 1007.1 |
| 20260505022945 | 29 | 120 | 6.4 | 20.9 | 0.00 | 0.00 | 0.00 | 75 | 1007.1 |
| 20260505022443 | 29 | 123 | 9.7 | 22.5 | 0.00 | 0.00 | 0.00 | 74 | 1007.1 |
| 20260505021943 | 29 | 124 | 11.3 | 22.5 | 0.00 | 0.00 | 0.00 | 75 | 1007.1 |
| 20260505021442 | 29 | 119 | 12.9 | 22.5 | 0.00 | 0.00 | 0.00 | 75 | 1007.1 |
| 20260505020837 | 29 | 128 | 12.9 | 22.5 | 0.00 | 0.00 | 0.00 | 75 | 1007.1 |
| 20260505020336 | 29 | 124 | 11.3 | 25.7 | 0.00 | 0.00 | 0.00 | 75 | 1007.1 |
| 20260505015834 | 29 | 116 | 11.3 | 25.7 | 0.00 | 0.00 | 0.00 | 75 | 1007.1 |
| 20260505015333 | 29 | 117 | 12.9 | 25.7 | 0.00 | 0.00 | 0.00 | 74 | 1007.1 |
| 20260505014833 | 29 | 123 | 11.3 | 25.7 | 0.00 | 0.00 | 0.00 | 75 | 1007.1 |
| 20260505014331 | 29 | 118 | 12.9 | 22.5 | 0.00 | 0.00 | 0.00 | 75 | 1007.1 |
| 20260505013829 | 29 | 118 | 11.3 | 20.9 | 0.00 | 0.00 | 0.00 | 75 | 1007.1 |
| 20260505013328 | 29 | 118 | 11.3 | 22.5 | 0.00 | 0.00 | 0.00 | 75 | 1007.1 |
| 20260505012827 | 29 | 128 | 11.3 | 22.5 | 0.00 | 0.00 | 0.00 | 75 | 1007.1 |
| 20260505012325 | 29 | 135 | 9.7 | 24.1 | 0.00 | 0.00 | 0.00 | 75 | 1007.1 |
| 20260505011823 | 29 | 128 | 14.5 | 24.1 | 0.00 | 0.00 | 0.00 | 75 | 1007.1 |
| 20260505011322 | 29 | 115 | 11.3 | 24.1 | 0.00 | 0.00 | 0.00 | 75 | 1007.1 |
| 20260505010820 | 29 | 125 | 9.7 | 25.7 | 0.00 | 0.00 | 0.00 | 76 | 1007.1 |
| 20260505010319 | 29 | 111 | 8.0 | 25.7 | 0.00 | 0.00 | 0.00 | 76 | 1007.1 |
| 20260505005817 | 29 | 115 | 8.0 | 25.7 | 0.00 | 0.00 | 0.00 | 76 | 1007.1 |
| 20260505005316 | 29 | 130 | 14.5 | 22.5 | 0.00 | 0.00 | 0.00 | 76 | 1007.1 |
| 20260505004814 | 29 | 126 | 8.0 | 25.7 | 0.00 | 0.00 | 0.00 | 77 | 1007.1 |
| 20260505004313 | 29 | 107 | 11.3 | 25.7 | 0.00 | 0.00 | 0.00 | 77 | 1007.1 |
| 20260505003812 | 29 | 116 | 9.7 | 25.7 | 0.00 | 0.00 | 0.00 | 77 | 1007.1 |
| 20260505003310 | 29 | 129 | 12.9 | 25.7 | 0.00 | 0.00 | 0.00 | 77 | 1007.1 |
| 20260505002738 | 29 | 117 | 9.7 | 24.1 | 0.00 | 0.00 | 0.00 | 77 | 1007.1 |
| 20260505002237 | 29 | 117 | 12.9 | 24.1 | 0.00 | 0.00 | 0.00 | 77 | 1007.1 |
| 20260505001704 | 29 | 132 | 12.9 | 24.1 | 0.00 | 0.00 | 0.00 | 76 | 1007.1 |
| 20260505001203 | 30 | 116 | 6.4 | 20.9 | 0.00 | 0.00 | 0.00 | 75 | 1007.1 |
| 20260505000702 | 30 | 124 | 11.3 | 20.9 | 0.00 | 0.00 | 0.00 | 74 | 1007.1 |
| 20260505000129 | 30 | 126 | 9.7 | 17.7 | 0.00 | 0.00 | 0.00 | 73 | 1007.1 |
| 20260504235627 | 30 | 118 | 9.7 | 17.7 | 0.00 | 0.00 | 0.00 | 73 | 1007.1 |
| 20260504235055 | 30 | 106 | 3.2 | 19.3 | 0.00 | 0.00 | 0.00 | 74 | 1007.1 |
| 20260504234554 | 30 | 122 | 8.0 | 19.3 | 0.00 | 0.00 | 0.00 | 73 | 1006.8 |
| 20260504234053 | 31 | 120 | 8.0 | 19.3 | 0.00 | 0.00 | 0.00 | 73 | 1006.8 |
| 20260504233520 | 31 | 107 | 8.0 | 19.3 | 0.00 | 0.00 | 0.00 | 72 | 1006.8 |
| 20260504233019 | 31 | 121 | 11.3 | 19.3 | 0.00 | 0.00 | 0.00 | 71 | 1006.8 |
| 20260504232518 | 31 | 103 | 3.2 | 9.7 | 0.00 | 0.00 | 0.00 | 70 | 1006.4 |
| 20260504232018 | 32 | 110 | 3.2 | 9.7 | 0.00 | 0.00 | 0.00 | 70 | 1006.4 |
| 20260504231345 | 32 | 105 | 4.8 | 12.9 | 0.00 | 0.00 | 0.00 | 69 | 1006.4 |
| 20260504230844 | 32 | 104 | 3.2 | 12.9 | 0.00 | 0.00 | 0.00 | 69 | 1006.4 |
| 20260504230343 | 32 | 107 | 4.8 | 12.9 | 0.00 | 0.00 | 0.00 | 69 | 1009.8 |
| 20260504225809 | 32 | 109 | 3.2 | 12.9 | 0.00 | 0.00 | 0.00 | 69 | 1009.8 |
| 20260504225308 | 32 | 97 | 4.8 | 12.9 | 0.00 | 0.00 | 0.00 | 69 | 1009.8 |
| 20260504224807 | 32 | 80 | 1.6 | 4.8 | 0.00 | 0.00 | 0.00 | 69 | 1009.8 |
| 20260504224306 | 32 | 80 | 0.0 | 4.8 | 0.00 | 0.00 | 0.00 | 69 | 1009.8 |
| 20260504223631 | 33 | 80 | 0.0 | 4.8 | 0.00 | 0.00 | 0.00 | 69 | 1009.8 |
| 20260504223130 | 33 | 102 | 1.6 | 1.6 | 0.00 | 0.00 | 0.00 | 68 | 1009.8 |
| 20260504222628 | 33 | 54 | 1.6 | 1.6 | 0.00 | 0.00 | 0.00 | 68 | 1009.8 |
| 20260504222127 | 33 | 108 | 1.6 | 1.6 | 0.00 | 0.00 | 0.00 | 67 | 1009.8 |
| 20260504221625 | 33 | 99 | 0.0 | 1.6 | 0.00 | 0.00 | 0.00 | 66 | 1009.8 |
| 20260504221053 | 33 | 98 | 1.6 | 1.6 | 0.00 | 0.00 | 0.00 | 67 | 1009.8 |
| 20260504220521 | 33 | 105 | 0.0 | 1.6 | 0.00 | 0.00 | 0.00 | 67 | 1009.8 |
| 20260504220020 | 32 | 104 | 0.0 | 1.6 | 0.00 | 0.00 | 0.00 | 67 | 1009.8 |
| 20260504215447 | 32 | 104 | 1.6 | 1.6 | 0.00 | 0.00 | 0.00 | 67 | 1009.8 |
| 20260504214945 | 32 | 103 | 1.6 | 1.6 | 0.00 | 0.00 | 0.00 | 66 | 1009.8 |
| 20260504214444 | 32 | 98 | 0.0 | 1.6 | 0.00 | 0.00 | 0.00 | 64 | 1009.8 |
| 20260504213911 | 32 | 137 | 1.6 | 6.4 | 0.00 | 0.00 | 0.00 | 64 | 1009.8 |
| 20260504213410 | 32 | 127 | 0.0 | 6.4 | 0.00 | 0.00 | 0.00 | 63 | 1009.8 |
| 20260504212909 | 32 | 127 | 0.0 | 6.4 | 0.00 | 0.00 | 0.00 | 63 | 1009.8 |
| 20260504212408 | 32 | 127 | 3.2 | 6.4 | 0.00 | 0.00 | 0.00 | 65 | 1009.8 |
| 20260504211907 | 32 | 127 | 3.2 | 4.8 | 0.00 | 0.00 | 0.00 | 65 | 1009.8 |
| 20260504211406 | 32 | 125 | 1.6 | 3.2 | 0.00 | 0.00 | 0.00 | 64 | 1009.8 |
| 20260504210904 | 32 | 126 | 0.0 | 3.2 | 0.00 | 0.00 | 0.00 | 67 | 1009.8 |
| 20260504210402 | 32 | 120 | 1.6 | 1.6 | 0.00 | 0.00 | 0.00 | 66 | 1009.8 |
| 20260504205901 | 32 | 111 | 1.6 | 1.6 | 0.00 | 0.00 | 0.00 | 67 | 1009.8 |
| 20260504205328 | 32 | 110 | 1.6 | 1.6 | 0.00 | 0.03 | 0.00 | 66 | 1009.8 |
| 20260504204827 | 32 | 110 | 0.0 | 3.2 | 0.00 | 0.03 | 0.00 | 66 | 1009.8 |
| 20260504204254 | 32 | 110 | 1.6 | 3.2 | 0.00 | 0.03 | 0.00 | 66 | 1009.8 |
| 20260504203753 | 32 | 79 | 1.6 | 3.2 | 0.00 | 0.03 | 0.00 | 66 | 1009.8 |
| 20260504203251 | 32 | 70 | 0.0 | 3.2 | 0.00 | 0.03 | 0.00 | 65 | 1009.8 |
| 20260504202750 | 32 | 51 | 1.6 | 3.2 | 0.00 | 0.03 | 0.00 | 66 | 1009.8 |
| 20260504202249 | 32 | 104 | 1.6 | 4.8 | 0.00 | 0.03 | 0.00 | 65 | 1009.8 |
| 20260504201747 | 32 | 86 | 1.6 | 4.8 | 0.00 | 0.03 | 0.00 | 65 | 1009.8 |
| 20260504201246 | 32 | 37 | 0.0 | 4.8 | 0.00 | 0.03 | 0.00 | 68 | 1009.8 |
| 20260504200745 | 32 | 7 | 3.2 | 4.8 | 0.00 | 0.03 | 0.00 | 68 | 1009.8 |
| 20260504200244 | 32 | 91 | 1.6 | 4.8 | 0.00 | 0.03 | 0.00 | 68 | 1009.8 |
| 20260504195743 | 32 | 109 | 1.6 | 4.8 | 0.00 | 0.03 | 0.00 | 68 | 1009.8 |
| 20260504195241 | 32 | 115 | 1.6 | 6.4 | 0.00 | 0.03 | 0.00 | 67 | 1009.8 |
| 20260504194740 | 32 | 105 | 0.0 | 6.4 | 0.00 | 0.03 | 0.00 | 68 | 1009.8 |
| 20260504194238 | 32 | 110 | 1.6 | 6.4 | 0.00 | 0.03 | 0.00 | 68 | 1009.8 |
| 20260504193737 | 32 | 118 | 1.6 | 6.4 | 0.00 | 0.03 | 0.00 | 70 | 1009.8 |
| 20260504193235 | 31 | 120 | 3.2 | 6.4 | 0.00 | 0.03 | 0.00 | 71 | 1009.8 |
| 20260504192734 | 31 | 146 | 3.2 | 6.4 | 0.00 | 0.03 | 0.00 | 71 | 1009.8 |
| 20260504192233 | 31 | 157 | 4.8 | 6.4 | 0.00 | 0.03 | 0.00 | 71 | 1009.8 |
| 20260504191731 | 32 | 156 | 4.8 | 6.4 | 0.00 | 0.03 | 0.00 | 70 | 1009.8 |
| 20260504191230 | 32 | 117 | 3.2 | 6.4 | 0.00 | 0.03 | 0.00 | 71 | 1009.8 |
| 20260504190728 | 32 | 108 | 1.6 | 6.4 | 0.00 | 0.03 | 0.00 | 70 | 1009.8 |
| 20260504190226 | 32 | 124 | 3.2 | 6.4 | 0.00 | 0.03 | 0.00 | 70 | 1009.8 |
| 20260504185725 | 31 | 124 | 3.2 | 6.4 | 0.00 | 0.03 | 0.00 | 70 | 1009.8 |
| 20260504185224 | 31 | 107 | 3.2 | 6.4 | 0.00 | 0.03 | 0.00 | 71 | 1009.8 |
| 20260504184723 | 31 | 157 | 4.8 | 8.0 | 0.00 | 0.03 | 0.00 | 71 | 1009.8 |
| 20260504184222 | 31 | 170 | 4.8 | 8.0 | 0.00 | 0.03 | 0.00 | 70 | 1009.8 |
| 20260504183721 | 31 | 132 | 3.2 | 8.0 | 0.00 | 0.03 | 0.00 | 70 | 1009.8 |
| 20260504183219 | 31 | 120 | 3.2 | 8.0 | 0.00 | 0.03 | 0.00 | 71 | 1009.8 |
| 20260504182717 | 31 | 140 | 4.8 | 8.0 | 0.00 | 0.03 | 0.00 | 71 | 1009.8 |
| 20260504182215 | 31 | 167 | 4.8 | 8.0 | 0.00 | 0.03 | 0.00 | 71 | 1009.8 |
| 20260504181714 | 31 | 184 | 4.8 | 8.0 | 0.00 | 0.03 | 0.00 | 71 | 1009.8 |
| 20260504181141 | 31 | 181 | 4.8 | 8.0 | 0.00 | 0.03 | 0.00 | 71 | 1009.8 |
| 20260504180640 | 31 | 166 | 4.8 | 9.7 | 0.00 | 0.03 | 0.00 | 72 | 1009.8 |
| 20260504180138 | 31 | 167 | 4.8 | 9.7 | 0.00 | 0.03 | 0.00 | 73 | 1009.8 |
| 20260504175636 | 31 | 144 | 4.8 | 9.7 | 0.00 | 0.03 | 0.00 | 73 | 1009.8 |
| 20260504175104 | 31 | 174 | 4.8 | 9.7 | 0.00 | 0.03 | 0.00 | 73 | 1009.8 |
| 20260504174603 | 31 | 178 | 6.4 | 9.7 | 0.00 | 0.03 | 0.00 | 73 | 1009.8 |
| 20260504174102 | 31 | 134 | 4.8 | 9.7 | 0.00 | 0.03 | 0.00 | 73 | 1009.8 |
| 20260504173601 | 31 | 146 | 6.4 | 11.3 | 0.00 | 0.03 | 0.00 | 74 | 1009.8 |
| 20260504173100 | 31 | 126 | 4.8 | 11.3 | 0.00 | 0.03 | 0.00 | 74 | 1009.8 |
| 20260504172527 | 31 | 150 | 6.4 | 11.3 | 0.00 | 0.03 | 0.00 | 74 | 1009.8 |
| 20260504171954 | 31 | 146 | 6.4 | 11.3 | 0.00 | 0.03 | 0.00 | 75 | 1009.8 |
| 20260504171452 | 30 | 127 | 4.8 | 9.7 | 0.00 | 0.03 | 0.00 | 75 | 1009.8 |
| 20260504170952 | 30 | 171 | 8.0 | 9.7 | 0.00 | 0.03 | 0.00 | 76 | 1009.8 |
| 20260504170420 | 30 | 181 | 8.0 | 9.7 | 0.00 | 0.03 | 0.00 | 77 | 1009.8 |
| 20260504160303 | 30 | 153 | 4.8 | 9.7 | 0.00 | 0.03 | 0.00 | 77 | 1009.8 |
| 20260504150718 | 32 | 158 | 6.4 | 8.0 | 0.00 | 0.03 | 0.00 | 67 | 1009.8 |
| 20260504150216 | 32 | 115 | 3.2 | 8.0 | 0.00 | 0.03 | 0.00 | 66 | 1009.8 |
| 20260504141029 | 33 | 103 | 0.0 | 3.2 | 0.00 | 0.03 | 0.00 | 64 | 1009.8 |
| 20260504140528 | 33 | 105 | 1.6 | 3.2 | 0.00 | 0.03 | 0.00 | 65 | 1009.8 |
| 20260504130412 | 30 | 88 | 0.0 | 0.0 | 0.00 | 0.03 | 0.00 | 72 | 1009.8 |
| 20260504081905 | 28 | 96 | 6.4 | 17.7 | 0.00 | 0.03 | 0.03 | 76 | 956.3 |
| 20260504081403 | 28 | 103 | 9.7 | 17.7 | 0.00 | 0.03 | 0.03 | 75 | 956.3 |
| 20260504080903 | 28 | 114 | 9.7 | 22.5 | 0.00 | 0.03 | 0.03 | 76 | 956.3 |
| 20260504080401 | 28 | 114 | 8.0 | 22.5 | 0.00 | 0.03 | 0.03 | 76 | 956.3 |
| 20260504070217 | 27 | 89 | 4.8 | 12.9 | 0.00 | 0.03 | 0.03 | 80 | 956.3 |
| 20260504060132 | 28 | 53 | 0.0 | 4.8 | 0.00 | 0.03 | 0.03 | 79 | 1008.1 |
| 20260504050415 | 28 | 103 | 6.4 | 20.9 | 0.00 | 0.03 | 0.03 | 79 | 1008.1 |
| 20260504045913 | 28 | 116 | 8.0 | 22.5 | 0.00 | 0.03 | 0.03 | 79 | 1008.1 |
| 20260504045340 | 28 | 113 | 9.7 | 25.7 | 0.00 | 0.03 | 0.03 | 79 | 1008.1 |
| 20260504044840 | 28 | 112 | 11.3 | 25.7 | 0.00 | 0.03 | 0.03 | 79 | 1008.1 |
| 20260504044339 | 28 | 106 | 9.7 | 25.7 | 0.00 | 0.03 | 0.03 | 79 | 1008.1 |
| 20260504043837 | 28 | 109 | 8.0 | 25.7 | 0.00 | 0.03 | 0.03 | 79 | 1008.1 |
| 20260504043337 | 28 | 120 | 12.9 | 22.5 | 0.00 | 0.03 | 0.03 | 79 | 1008.1 |
| 20260504042835 | 28 | 113 | 9.7 | 25.7 | 0.00 | 0.03 | 0.03 | 80 | 1008.5 |
| 20260504042304 | 28 | 91 | 8.0 | 25.7 | 0.00 | 0.03 | 0.03 | 79 | 1008.5 |
| 20260504041802 | 28 | 120 | 8.0 | 25.7 | 0.00 | 0.03 | 0.03 | 79 | 1008.5 |
| 20260504041301 | 28 | 117 | 8.0 | 27.4 | 0.00 | 0.03 | 0.03 | 79 | 1008.5 |
| 20260504040729 | 28 | 119 | 8.0 | 27.4 | 0.00 | 0.03 | 0.03 | 79 | 1008.5 |
| 20260504040157 | 28 | 104 | 9.7 | 33.8 | 0.00 | 0.03 | 0.03 | 79 | 1008.5 |
| 20260504035655 | 28 | 116 | 12.9 | 33.8 | 0.00 | 0.03 | 0.03 | 79 | 1008.5 |
| 20260504035154 | 28 | 125 | 11.3 | 33.8 | 0.00 | 0.03 | 0.03 | 79 | 1008.5 |
| 20260504034622 | 28 | 134 | 14.5 | 33.8 | 0.00 | 0.03 | 0.03 | 78 | 1008.1 |
| 20260504034049 | 28 | 114 | 14.5 | 33.8 | 0.00 | 0.03 | 0.03 | 78 | 1008.8 |
| 20260504033547 | 28 | 128 | 16.1 | 33.8 | 0.00 | 0.03 | 0.03 | 78 | 1008.8 |
| 20260504033046 | 28 | 136 | 14.5 | 40.2 | 0.00 | 0.03 | 0.03 | 78 | 1008.8 |